This is the latest recevied weather packets stored in our database for station/object N4TLC. If no packets are shown the sender has not sent any weather packets the latest 1 day(s).
| Time | Temp. | Humidity | Pressure | Rain* | Wind** | Luminosity | Snow |
|---|---|---|---|---|---|---|---|
| 1778045980 | 17.78° C | 64% | 1016.2 hPa | 0 mm | 0.89 m/s, 127° | 0 W/m² | - |
| 1778045678 | 17.78° C | 64% | 1016.2 hPa | 0 mm | 1.34 m/s, 138° | 0 W/m² | - |
| 1778045376 | 17.78° C | 63% | 1016.2 hPa | 0 mm | 1.34 m/s, 155° | 0 W/m² | - |
| 1778045075 | 17.78° C | 63% | 1016.1 hPa | 0 mm | 0.89 m/s, 147° | 0 W/m² | - |
| 1778044772 | 17.78° C | 62% | 1016.1 hPa | 0 mm | 1.34 m/s, 127° | 0 W/m² | - |
| 1778044469 | 17.78° C | 62% | 1016 hPa | 0 mm | 1.34 m/s, 132° | 0 W/m² | - |
| 1778044166 | 17.78° C | 61% | 1016.1 hPa | 0 mm | 0.89 m/s, 92° | 0 W/m² | - |
| 1778043863 | 18.33° C | 61% | 1016.3 hPa | 0 mm | 1.79 m/s, 139° | 0 W/m² | - |
| 1778043560 | 18.33° C | 60% | 1016.2 hPa | 0 mm | 1.79 m/s, 143° | 0 W/m² | - |
| 1778043257 | 18.33° C | 60% | 1016.2 hPa | 0 mm | 1.34 m/s, 159° | 0 W/m² | - |
| 1778042954 | 18.33° C | 59% | 1016.2 hPa | 0 mm | 2.68 m/s, 144° | 0 W/m² | - |
| 1778042652 | 18.33° C | 59% | 1016.1 hPa | 0 mm | 0.89 m/s, 172° | 0 W/m² | - |
| 1778042349 | 18.89° C | 58% | 1016.2 hPa | 0 mm | 1.79 m/s, 152° | 0 W/m² | - |
| 1778042046 | 18.89° C | 58% | 1016.4 hPa | 0 mm | 1.79 m/s, 144° | 0 W/m² | - |
| 1778041744 | 18.89° C | 57% | 1016.2 hPa | 0 mm | 0.89 m/s, 128° | 0 W/m² | - |
| 1778041443 | 18.89° C | 56% | 1016.5 hPa | 0 mm | 0.89 m/s, 123° | 0 W/m² | - |
| 1778041141 | 18.89° C | 56% | 1016.4 hPa | 0 mm | 1.34 m/s, 105° | 0 W/m² | - |
| 1778040838 | 19.44° C | 55% | 1016.4 hPa | 0 mm | 1.79 m/s, 152° | 0 W/m² | - |
| 1778040535 | 19.44° C | 55% | 1016.2 hPa | 0 mm | 1.34 m/s, 173° | 0 W/m² | - |
| 1778040232 | 19.44° C | 54% | 1016.2 hPa | 0 mm | 0.89 m/s, 112° | 0 W/m² | - |
| 1778039928 | 19.44° C | 53% | 1015.9 hPa | 0 mm | 1.34 m/s, 132° | 0 W/m² | - |
| 1778039626 | 19.44° C | 52% | 1016.1 hPa | 0 mm | 1.34 m/s, 139° | 0 W/m² | - |
| 1778039323 | 19.44° C | 52% | 1015.9 hPa | 0 mm | 0.89 m/s, 160° | 0 W/m² | - |
| 1778039020 | 19.44° C | 51% | 1015.8 hPa | 0 mm | 1.34 m/s, 128° | 0 W/m² | - |
| 1778038717 | 20° C | 51% | 1015.8 hPa | 0 mm | 0.89 m/s, 120° | 0 W/m² | - |
* Rain latest hour (hover to see other rain measurements)
** Current wind speed in m/s (hover to see current wind gust speed)